Columbus, NE

6:06 AM CDT on March 24, 2017 (GMT -0500)
Columbus Municipal

Weather History for KOLU - December, 2011

Change the Weather History Date:

Monday, December 5, 2011

  Actual Average Record
Temperature  
Mean Temperature 11 °F -  
Max Temperature 21 °F 38 °F 64 °F (1963)
Min Temperature 1 °F 20 °F -9 °F (2005)
Degree Days  
Heating Degree Days 54    
Moisture  
Dew Point 7 °F    
Average Humidity 72    
Maximum Humidity 86    
Minimum Humidity 63    
Precipitation  
Precipitation 0.00 in - - ()
Sea Level Pressure  
Sea Level Pressure 30.46 in    
Wind  
Wind Speed 12 mph (NW)    
Max Wind Speed 21 mph    
Max Gust Speed 25 mph    
Visibility 10 miles    
Events      
Averages and records for this station are not official NWS values.
T = Trace of Precipitation, MM = Missing Value Source: NWS Daily Summary

Daily Weather History Graph

Daily Weather History Graph

Search for Another Location

Airport or City:

Trip Planner

Search our weather history database for the weather conditions in past years. The results will help you decide how hot, cold, wet, or windy it might be!

Date:

Astronomy

Dec. 05, 2011 Rise Set
Actual Time 7:39 AM CST 4:59 PM CST
Civil Twilight 7:08 AM CST 5:30 PM CST
Nautical Twilight 6:34 AM CST 6:05 PM CST
Astronomical Twilight 6:00 AM CST 6:38 PM CST
Moon 2:00 PM CST (12/5) 3:00 AM CST (12/5)
Length of Visible Light 10h 21m
Length of Day
9h 19m
Waxing Gibbous, 80% of the Moon is Illuminated
Dec 5
Waxing Gibbous
Dec 10
Full
Dec 17
Last Quarter
Dec 24
New
Jan 1
First Quarter

Hourly Weather History & Observations

Time (CST) Temp. Windchill Dew Point Humidity Pressure Visibility Wind Dir Wind Speed Gust Speed Precip Events Conditions
12:15 AM 19.4 °F 3.2 °F 15.8 °F 86% 30.37 in 10.0 mi NW 20.7 mph - N/A   Overcast
12:35 AM 19.4 °F 3.6 °F 15.8 °F 86% 30.37 in 10.0 mi NW 19.6 mph - N/A   Overcast
1:15 AM 17.6 °F 2.7 °F 10.4 °F 73% 30.38 in 10.0 mi NW 16.1 mph 20.7 mph N/A   Mostly Cloudy
1:35 AM 17.6 °F 2.2 °F 8.6 °F 68% 30.38 in 10.0 mi NW 17.3 mph - N/A   Clear
1:55 AM 15.8 °F 2.7 °F 8.6 °F 73% 30.39 in 10.0 mi NW 11.5 mph - N/A   Clear
2:15 AM 15.8 °F 3.4 °F 6.8 °F 68% 30.40 in 10.0 mi NW 10.4 mph - N/A   Clear
2:35 AM 14.0 °F 2.9 °F 6.8 °F 73% 30.41 in 10.0 mi WNW 8.1 mph - N/A   Clear
2:55 AM 12.2 °F 1.7 °F 5.0 °F 73% 30.41 in 10.0 mi WNW 6.9 mph - N/A   Clear
3:15 AM 12.2 °F 2.9 °F 5.0 °F 73% 30.41 in 10.0 mi WNW 5.8 mph - N/A   Clear
3:35 AM 12.2 °F 0.7 °F 3.2 °F 67% 30.41 in 10.0 mi West 8.1 mph - N/A   Clear
4:15 AM 10.4 °F 2.2 °F 3.2 °F 73% 30.40 in 10.0 mi WNW 4.6 mph - N/A   Clear
4:35 AM 8.6 °F 0.1 °F 1.4 °F 73% 30.41 in 10.0 mi WNW 4.6 mph - N/A   Clear
5:15 AM 10.4 °F 2.2 °F 3.2 °F 73% 30.41 in 10.0 mi WNW 4.6 mph - N/A   Overcast
5:35 AM 10.4 °F 0.8 °F 3.2 °F 73% 30.40 in 10.0 mi West 5.8 mph - N/A   Overcast
5:55 AM 10.4 °F 2.2 °F 3.2 °F 73% 30.39 in 10.0 mi West 4.6 mph - N/A   Overcast
6:15 AM 12.2 °F 4.3 °F 5.0 °F 73% 30.41 in 10.0 mi SW 4.6 mph - N/A   Overcast
6:35 AM 14.0 °F 8.2 °F 6.8 °F 73% 30.43 in 10.0 mi WSW 3.5 mph - N/A   Overcast
6:55 AM 12.2 °F - 6.8 °F 79% 30.44 in 10.0 mi Calm Calm - N/A   Overcast
7:15 AM 17.6 °F 3.2 °F 8.6 °F 68% 30.44 in 10.0 mi NW 15.0 mph - N/A   Overcast
7:35 AM 19.4 °F 7.2 °F 12.2 °F 74% 30.46 in 10.0 mi NW 11.5 mph - N/A   Overcast
7:55 AM 19.4 °F 7.2 °F 12.2 °F 74% 30.47 in 10.0 mi NW 11.5 mph - N/A   Overcast
8:15 AM 19.4 °F 6.6 °F 12.2 °F 74% 30.46 in 10.0 mi NNW 12.7 mph - N/A   Overcast
8:35 AM 19.4 °F 6.6 °F 14.0 °F 80% 30.47 in 10.0 mi NNW 12.7 mph - N/A   Overcast
9:15 AM 21.2 °F 7.8 °F 15.8 °F 80% 30.48 in 10.0 mi North 15.0 mph - N/A   Overcast
9:35 AM 21.2 °F 5.6 °F 14.0 °F 74% 30.48 in 9.0 mi North 20.7 mph 25.3 mph N/A   Overcast
9:55 AM 21.2 °F 8.3 °F 12.2 °F 68% 30.49 in 10.0 mi North 13.8 mph 21.9 mph N/A   Overcast
10:15 AM 21.2 °F 7.8 °F 14.0 °F 74% 30.51 in 10.0 mi North 15.0 mph - N/A   Overcast
10:35 AM 21.2 °F 6.4 °F 14.0 °F 74% 30.51 in 10.0 mi North 18.4 mph - N/A   Overcast
10:55 AM 21.2 °F 6.4 °F 12.2 °F 68% 30.52 in 10.0 mi North 18.4 mph - N/A   Overcast
11:15 AM 21.2 °F 6.4 °F 12.2 °F 68% 30.52 in 10.0 mi North 18.4 mph - N/A   Overcast
11:35 AM 21.2 °F 7.8 °F 12.2 °F 68% 30.52 in 10.0 mi North 15.0 mph - N/A   Overcast
11:55 AM 19.4 °F 4.5 °F 12.2 °F 74% 30.52 in 10.0 mi NNW 17.3 mph 25.3 mph N/A   Overcast
12:15 PM 19.4 °F 4.5 °F 10.4 °F 68% 30.51 in 10.0 mi North 17.3 mph - N/A   Overcast
12:35 PM 17.6 °F 1.7 °F 10.4 °F 73% 30.50 in 9.0 mi NNW 18.4 mph 21.9 mph N/A   Overcast
12:55 PM 17.6 °F 2.7 °F 8.6 °F 68% 30.50 in 10.0 mi North 16.1 mph - N/A   Mostly Cloudy
1:15 PM 17.6 °F 2.7 °F 8.6 °F 68% 30.50 in 10.0 mi North 16.1 mph 21.9 mph N/A   Mostly Cloudy
1:35 PM 17.6 °F 3.7 °F 8.6 °F 68% 30.50 in 10.0 mi North 13.8 mph - N/A   Mostly Cloudy
1:55 PM 17.6 °F 4.3 °F 6.8 °F 63% 30.50 in 10.0 mi North 12.7 mph 18.4 mph N/A   Partly Cloudy
2:15 PM 15.8 °F 1.4 °F 6.8 °F 68% 30.50 in 10.0 mi NNW 13.8 mph 17.3 mph N/A   Scattered Clouds
2:55 PM 17.6 °F 5.0 °F 6.8 °F 63% 30.49 in 10.0 mi North 11.5 mph - N/A   Partly Cloudy
3:15 PM 17.6 °F 4.3 °F 6.8 °F 63% 30.49 in 10.0 mi NNW 12.7 mph 18.4 mph N/A   Clear
3:35 PM 17.6 °F 4.3 °F 6.8 °F 63% 30.49 in 10.0 mi NNW 12.7 mph - N/A   Clear
3:55 PM 17.6 °F 7.3 °F 6.8 °F 63% 30.48 in 10.0 mi North 8.1 mph - N/A   Clear
4:15 PM 15.8 °F 6.1 °F 6.8 °F 68% 30.48 in 10.0 mi North 6.9 mph - N/A   Clear
4:35 PM 15.8 °F 4.2 °F 6.8 °F 68% 30.47 in 10.0 mi North 9.2 mph - N/A   Clear
5:15 PM 12.2 °F 2.9 °F 3.2 °F 67% 30.48 in 10.0 mi North 5.8 mph - N/A   Clear
5:35 PM 10.4 °F 4.0 °F 3.2 °F 73% 30.48 in 10.0 mi NNW 3.5 mph - N/A   Clear
5:55 PM 10.4 °F 0.8 °F 3.2 °F 73% 30.48 in 10.0 mi North 5.8 mph - N/A   Clear
6:15 PM 10.4 °F 4.0 °F 3.2 °F 73% 30.48 in 10.0 mi NW 3.5 mph - N/A   Clear
6:35 PM 8.6 °F 0.1 °F 1.4 °F 73% 30.48 in 10.0 mi NW 4.6 mph - N/A   Clear
6:55 PM 6.8 °F -3.5 °F 1.4 °F 79% 30.48 in 10.0 mi NW 5.8 mph - N/A   Clear
7:15 PM 1.4 °F -6.2 °F -2.2 °F 85% 30.48 in 10.0 mi WNW 3.5 mph - N/A   Clear
7:35 PM 5.0 °F -6.9 °F -0.4 °F 78% 30.49 in 10.0 mi NW 6.9 mph - N/A   Clear
7:55 PM 6.8 °F -4.8 °F 1.4 °F 79% 30.49 in 10.0 mi NW 6.9 mph - N/A   Clear
8:15 PM 5.0 °F -5.6 °F -0.4 °F 78% 30.49 in 10.0 mi WNW 5.8 mph - N/A   Clear
8:35 PM 6.8 °F -3.5 °F -0.4 °F 72% 30.50 in 10.0 mi WNW 5.8 mph - N/A   Clear
8:55 PM 6.8 °F -4.8 °F -0.4 °F 72% 30.49 in 10.0 mi NW 6.9 mph - N/A   Clear
9:15 PM 5.0 °F -5.6 °F -0.4 °F 78% 30.50 in 10.0 mi WNW 5.8 mph - N/A   Clear
9:35 PM 5.0 °F -5.6 °F -0.4 °F 78% 30.49 in 10.0 mi WNW 5.8 mph - N/A   Clear
9:55 PM 3.2 °F -6.2 °F -2.2 °F 78% 30.49 in 10.0 mi WNW 4.6 mph - N/A   Clear
10:15 PM 5.0 °F -4.1 °F -0.4 °F 78% 30.49 in 10.0 mi WNW 4.6 mph - N/A   Clear
10:35 PM 1.4 °F - -2.2 °F 85% 30.48 in 10.0 mi Calm Calm - N/A   Clear
10:55 PM 3.2 °F -6.2 °F -2.2 °F 78% 30.48 in 10.0 mi WNW 4.6 mph - N/A   Clear
11:15 PM 1.4 °F -8.3 °F -4.0 °F 78% 30.48 in 10.0 mi West 4.6 mph - N/A   Clear
11:35 PM 1.4 °F -9.9 °F -5.8 °F 72% 30.48 in 10.0 mi WNW 5.8 mph - N/A   Clear
11:55 PM -4.0 °F -14.6 °F -11.2 °F 71% 30.48 in 10.0 mi West 4.6 mph - N/A   Clear